Location: Unspecified
(35.6961°N, 0.0000°E)
Time: 18:29:12
(UTC+00:00)

S-56A Canister/Altair - Pass Details

Date: 01 June 2019
Orbit: 633 x 2499 km, 38.9° (Epoch: 25 June)

Event Time Altitude Azimuth Distance (km) Brightness Sun altitude
Rises 01:31:05 0° 281° (W) 3,180 - -28.2°
Reaches altitude 10° 01:33:11 10° 284° (WNW) 2,385 - -28.0°
Exits shadow 01:35:23 27° 290° (WNW) 1,633 9.1 -27.9°
Maximum altitude 01:38:44 70° 8° (N) 1,080 8.3 -27.6°
Drops below altitude 10° 01:47:03 10° 92° (E) 3,511 11.2 -26.8°
Sets 01:50:46 0° 95° (E) 4,803 11.9 -26.4°
